Location: Kaarina
(60.4167°N, 22.4167°E)
Time: 02:33:20
(UTC+03:00)

MTI - Pass Details

Date: 24 August 2019
Orbit: 400 x 412 km, 97.5° (Epoch: 19 September)

Event Time Altitude Azimuth Distance (km) Brightness Sun altitude
Rises 22:33:23 0° 17° (NNE) 2,368 8.0 -10.2°
Reaches altitude 10° 22:35:24 10° 20° (NNE) 1,498 6.9 -10.4°
Maximum altitude 22:38:35 72° 105° (ESE) 440 3.6 -10.7°
Drops below altitude 10° 22:41:45 10° 190° (S) 1,478 6.2 -11.0°
Enters shadow 22:42:33 - 192° (SSW) 1,824 6.6 -11.0°
